Wind_Speed
29 29 27 23 20 20 21 21 21 21 20 19 20 22 25 26 25 25 25 25 25 26 26 26 26 26 25 25 25 26 26 25 25 25 25 25 25 26 26 26 26 25 24 24 23 22 21 21 20 19 19 19 19 19 20 21 22 22 21 21 21 20 20 20 19 19 19 19 19 18 18 18 18 19 19 20 20 20 19 19 19 20 21 21 21
31 30 25 21 18 19 19 19 19 19 19 19 20 22 24 26 26 25 25 25 23 22 22 23 23 23 22 22 23 24 25 25 25 24 24 25 26 26 26 26 26 26 26 26 25 24 23 23 22 21 21 20 20 20 20 21 21 21 21 20 20 20 20 20 20 20 20 20 19 19 19 19 19 19 20 20 21 21 20 20 20 21 21 22 22
32 26 20 18 17 18 18 19 19 19 18 19 20 20 22 24 24 24 23 23 21 18 18 18 18 18 19 20 22 24 25 25 24 24 24 25 25 25 25 25 25 26 26 26 26 25 25 24 24 23 23 22 21 21 20 20 20 20 20 20 20 20 20 20 21 21 21 21 20 20 20 20 20 20 20 20 21 21 21 21 21 21 22 22 23
24 18 16 17 18 21 22 22 22 20 18 18 19 20 22 22 22 22 21 21 19 16 15 16 16 18 19 21 23 25 26 26 25 24 24 23 23 24 24 24 24 24 24 25 25 24 24 25 25 25 24 24 23 22 21 20 20 20 20 20 20 20 20 21 21 22 22 22 21 21 20 20 20 20 20 20 21 21 21 22 22 22 22 22 23
18 16 18 19 20 21 22 21 20 19 16 16 17 18 19 20 21 20 19 19 19 17 17 18 19 21 22 23 24 25 26 25 24 23 23 23 24 24 24 24 24 24 23 23 23 23 23 23 23 25 25 25 25 24 23 22 21 20 20 21 21 21 21 21 22 22 21 21 21 21 20 20 20 20 20 21 21 21 22 22 22 22 22 22 23
21 21 21 20 19 19 18 19 19 17 16 16 15 16 16 17 18 16 15 18 19 19 20 20 21 22 22 23 23 23 24 23 23 23 24 25 25 25 24 24 24 24 24 23 23 23 22 22 22 23 25 25 25 25 24 24 23 22 22 22 23 23 23 23 23 23 22 22 21 21 20 20 20 20 21 22 22 22 22 22 22 22 22 22 22
25 25 23 20 19 18 17 17 17 17 17 18 18 18 17 17 17 14 13 16 19 20 21 22 21 21 21 21 21 21 22 24 25 26 26 25 25 25 24 24 25 25 25 25 24 24 24 23 23 24 24 25 25 25 25 25 24 23 24 24 25 25 24 24 24 24 24 24 23 22 21 20 21 21 22 22 23 23 23 23 23 22 22 22 22
24 22 21 20 20 19 17 15 14 16 17 19 19 19 18 17 16 15 14 16 18 20 21 22 22 21 21 20 20 21 23 25 26 26 25 24 23 24 24 24 25 25 25 25 24 24 24 23 23 24 24 24 24 24 25 25 24 24 24 25 26 26 26 26 26 26 26 26 25 24 23 22 21 22 23 23 23 23 23 23 23 23 23 22 22
20 19 18 19 20 20 17 15 14 15 16 17 18 18 17 16 15 16 17 18 19 20 20 21 21 20 19 19 20 22 23 24 25 25 24 23 23 22 22 23 23 23 23 22 22 22 21 21 21 22 23 23 24 23 24 24 24 24 24 26 27 27 27 27 27 27 27 28 27 26 26 24 22 22 24 24 24 23 24 23 23 24 23 23 22
20 18 19 19 18 17 15 13 13 14 15 16 16 16 16 14 13 14 16 18 18 18 18 19 19 19 19 20 20 22 22 22 22 22 23 23 23 22 21 22 21 22 22 21 21 20 19 18 18 19 20 22 23 23 23 24 24 24 24 25 26 27 28 28 29 29 29 29 28 28 27 26 24 23 24 25 24 24 24 24 24 24 24 23 23
20 19 19 18 16 14 13 12 12 13 14 14 14 14 13 12 11 12 14 15 16 16 18 19 20 20 21 21 21 20 20 19 19 21 22 22 22 21 21 21 21 21 22 22 21 20 19 17 17 17 18 19 21 22 23 23 24 23 23 24 25 27 28 29 29 29 29 29 28 28 27 26 24 23 24 25 25 24 24 23 23 24 24 23 23
19 19 17 14 13 12 11 11 12 12 13 14 13 13 12 11 12 12 13 14 15 17 20 22 23 22 21 20 18 18 17 17 19 20 20 20 20 20 20 20 21 22 22 21 21 20 18 17 17 17 17 18 19 21 22 23 23 23 23 24 25 26 27 28 29 29 29 29 28 28 27 25 24 23 24 25 25 25 24 24 23 23 23 23 23
19 17 14 13 11 10 10 11 12 13 13 13 13 12 12 13 13 13 13 15 15 17 20 22 23 21 19 18 17 16 17 17 18 19 18 18 17 17 17 18 19 20 20 19 19 19 18 17 17 17 17 17 18 20 21 22 23 24 24 24 25 26 27 27 28 28 28 28 28 28 27 26 25 25 25 25 25 25 24 24 23 23 23 23 23
21 17 14 13 11 10 11 12 13 13 13 13 14 15 15 14 14 14 15 16 16 17 19 20 20 18 17 16 16 15 16 16 16 16 16 15 15 14 14 15 16 16 17 16 16 17 17 16 16 16 16 17 18 19 21 22 22 23 24 24 25 26 26 27 28 29 29 29 29 29 29 27 25 25 25 25 25 25 24 24 23 23 23 23 23
20 17 14 12 11 11 11 11 11 11 12 13 15 16 16 15 15 15 16 16 15 16 16 16 15 14 14 13 14 14 14 14 14 13 13 12 12 12 11 12 13 14 14 14 13 14 15 15 14 14 15 15 16 17 19 20 20 21 22 23 24 25 26 27 28 29 30 30 30 30 29 27 25 24 24 24 24 24 24 24 23 23 23 23 23
14 12 11 10 10 10 10 10 10 11 12 13 13 14 14 14 14 14 14 15 15 13 11 10 9 9 10 10 11 11 12 12 12 12 11 11 11 11 11 11 11 12 12 11 11 12 12 13 13 13 14 14 14 15 15 16 17 19 20 21 22 23 24 25 26 28 29 30 30 28 27 26 25 23 23 23 23 23 23 23 23 23 22 22 22
11 10 9 9 9 10 10 10 10 11 11 11 10 10 11 11 12 13 13 14 14 12 10 8 7 7 8 8 9 9 10 11 11 11 12 11 11 11 10 10 10 11 11 11 11 10 10 11 12 12 13 13 14 14 15 16 16 17 18 19 19 20 21 22 24 25 27 28 27 26 26 25 24 24 23 21 21 22 22 22 22 22 22 22 22
6 7 7 8 8 9 10 10 10 11 10 10 9 8 8 9 11 13 14 14 13 11 10 8 7 7 7 7 7 8 8 8 9 10 10 10 10 10 10 9 9 10 10 10 10 10 9 10 10 10 11 11 12 13 15 17 17 17 18 17 18 18 19 20 22 23 25 26 25 25 26 25 24 24 23 21 21 22 22 22 21 21 21 21 22
5 5 6 7 8 9 10 9 9 10 10 10 9 8 8 10 12 13 12 11 11 10 9 8 7 6 6 6 6 6 5 6 6 7 7 8 8 8 9 9 9 9 9 9 9 9 8 8 9 9 9 10 11 11 13 15 16 17 17 17 17 18 19 20 20 22 23 23 23 24 24 25 24 23 22 20 20 21 21 21 21 21 21 21 22
6 6 7 8 8 9 9 8 7 8 10 10 10 10 10 10 11 10 9 8 8 8 8 8 7 6 5 5 5 5 5 5 6 6 6 7 7 7 7 8 9 9 9 9 9 9 9 9 9 9 9 10 11 11 12 13 14 15 15 16 16 17 19 19 20 20 20 20 21 22 23 23 21 19 18 18 19 20 21 21 21 21 21 21 22
4 6 8 9 8 7 5 4 2 3 6 8 8 7 6 6 6 5 5 4 5 6 6 6 6 5 5 5 5 5 5 5 6 6 7 7 7 6 6 7 8 8 8 8 9 9 9 9 9 9 10 10 11 11 12 12 13 13 13 14 15 16 17 19 19 18 18 19 20 20 21 22 19 18 18 17 18 19 20 21 21 21 21 22 22
4 4 5 4 4 5 3 1 1 1 0 1 3 2 2 2 1 2 3 3 3 4 5 5 5 5 5 4 5 5 5 6 6 6 7 7 7 7 7 7 8 8 8 8 9 9 9 9 10 10 10 10 11 11 11 11 11 12 13 13 13 14 14 16 16 17 18 18 20 20 20 21 22 23 22 20 20 20 20 21 21 22 22 22 22
2 2 3 3 2 3 2 1 2 3 3 3 2 3 3 3 4 3 2 2 3 3 4 4 5 5 5 4 5 5 5 6 7 7 8 8 7 7 8 8 8 9 9 9 9 9 9 10 11 11 10 11 12 11 11 11 11 12 12 12 12 12 13 14 14 16 17 16 18 20 20 21 23 25 25 23 22 21 21 21 22 22 22 22 22
5 3 3 3 3 4 4 2 3 4 4 4 4 5 6 6 6 5 4 4 3 3 4 5 5 6 6 6 6 6 6 6 6 8 9 8 8 8 9 9 9 10 10 10 10 9 9 11 11 11 11 12 13 12 12 13 14 15 14 13 12 11 11 13 14 15 16 15 17 20 20 21 22 24 24 23 22 22 22 22 23 23 22 22 22
10 9 7 5 4 5 5 5 6 6 6 5 6 8 9 8 7 7 6 5 5 5 4 5 5 7 7 7 8 8 8 8 8 8 9 9 9 10 10 10 10 11 11 12 12 10 10 11 12 12 12 13 13 13 13 14 16 16 16 15 14 13 12 13 14 14 16 16 17 18 19 21 23 23 22 22 22 22 22 23 23 23 23 23 22
11 10 9 9 8 8 7 7 7 7 7 7 8 9 9 8 8 7 6 6 6 5 5 5 6 7 8 8 9 9 9 9 9 9 10 10 10 10 10 11 11 12 12 13 13 13 12 12 12 13 14 14 14 14 14 15 16 16 16 15 15 15 15 15 15 15 18 19 18 17 18 21 22 22 21 21 21 21 22 22 23 23 23 23 24
10 9 8 7 6 5 5 6 6 6 6 7 8 8 9 8 7 7 7 7 7 6 6 6 6 7 7 8 9 9 9 9 9 9 9 10 10 11 11 11 12 12 12 13 14 15 15 14 13 14 14 15 15 15 15 16 16 17 17 16 16 17 16 16 16 17 19 19 18 17 19 19 19 19 19 19 20 20 21 21 21 22 22 23 24
7 7 6 4 3 4 5 5 5 5 5 7 7 7 7 7 7 7 7 7 7 7 6 6 5 6 6 7 7 7 8 8 9 9 10 10 11 12 13 13 13 13 13 14 14 15 15 16 15 15 16 16 16 17 17 18 17 18 18 18 19 19 19 18 18 19 20 19 18 18 20 20 20 21 19 18 19 20 20 20 20 20 21 23 24
3 3 3 2 3 5 5 4 4 4 5 6 7 6 7 6 6 7 7 7 7 7 6 6 6 6 6 6 7 8 8 9 9 10 11 12 13 14 15 16 16 16 16 16 16 16 16 17 17 17 18 18 18 18 19 20 20 20 21 21 20 21 21 21 21 22 22 21 21 21 22 21 22 23 21 19 20 21 21 20 19 19 21 22 23
2 2 2 3 4 4 4 4 4 5 6 7 7 8 8 8 8 8 8 8 7 7 7 7 8 8 8 8 9 10 11 12 12 13 13 14 14 15 16 17 17 18 19 19 19 19 19 19 19 19 19 19 19 20 20 20 21 21 23 23 23 23 22 23 23 24 24 24 23 24 25 24 24 25 24 23 22 22 23 22 19 18 20 22 23
1 1 3 4 4 4 5 5 5 7 8 8 8 9 9 9 9 9 8 8 8 8 8 8 9 9 10 10 11 12 13 14 14 15 15 15 15 16 16 17 18 19 20 21 21 21 21 21 21 21 21 21 21 21 21 21 21 21 22 22 23 24 24 25 25 26 26 25 24 25 26 26 27 28 28 26 24 24 24 24 22 20 21 22 23
1 2 4 5 5 6 6 6 7 8 8 8 8 8 8 8 8 9 9 9 9 9 9 9 10 10 11 12 12 13 14 14 15 16 16 17 17 17 18 19 19 20 21 21 22 22 23 22 22 22 23 23 23 23 23 23 23 22 22 22 23 23 24 25 26 28 28 28 26 26 27 28 28 29 29 27 25 25 25 25 23 22 23 24 24
4 4 5 5 6 7 7 7 6 7 7 6 6 7 7 7 8 8 9 9 9 10 10 10 11 11 11 12 13 13 14 15 16 17 17 18 19 20 20 21 21 22 22 22 23 23 23 23 23 24 24 24 24 24 24 24 24 24 24 23 24 24 25 25 25 26 28 29 28 28 28 30 29 29 30 29 27 26 26 24 23 24 25 26 25
5 4 5 5 6 6 6 6 5 5 5 5 5 6 6 6 7 8 8 9 9 10 10 10 11 11 12 12 13 14 14 15 16 18 19 20 22 23 23 23 23 24 24 24 24 24 25 25 25 25 26 26 26 26 26 25 25 25 25 25 25 25 26 26 26 27 27 28 29 28 28 29 30 31 31 30 30 28 27 25 26 26 26 26 27
3 4 5 6 6 6 7 6 6 6 6 6 5 5 5 6 6 7 7 8 8 9 10 10 11 12 12 13 13 14 15 16 18 19 21 22 23 24 24 24 24 24 24 24 24 24 25 25 25 25 26 26 27 27 27 27 27 27 27 27 26 26 27 28 28 28 29 29 29 29 28 27 28 30 31 31 31 30 29 28 28 28 27 26 27
3 5 6 7 8 7 7 7 7 7 6 5 4 4 4 5 5 6 7 7 8 9 10 11 12 12 13 14 15 16 17 18 19 21 22 23 23 24 24 23 23 23 23 23 23 23 23 24 24 24 24 25 25 26 26 27 28 28 29 29 28 28 27 28 29 29 30 30 30 31 31 29 27 26 28 30 31 31 30 31 31 29 28 28 29
4 6 7 8 8 8 7 7 6 5 4 4 3 4 4 5 6 6 7 8 9 10 11 12 13 14 15 15 16 17 18 19 21 22 22 22 22 21 21 21 21 22 22 22 22 22 23 23 23 23 23 23 23 24 24 24 25 26 27 28 29 29 28 28 28 29 30 30 30 31 32 32 31 28 26 27 28 30 31 31 32 31 30 30 30
6 8 8 8 7 6 6 5 5 4 4 4 4 5 5 6 7 8 9 10 12 13 14 14 15 16 17 18 18 19 20 21 21 22 21 21 20 19 20 20 21 21 21 22 22 22 23 23 23 23 22 22 22 23 22 22 22 22 23 24 26 27 28 29 29 29 29 30 30 31 31 32 32 32 29 27 27 28 30 30 32 33 32 32 32
7 7 7 6 5 5 4 4 4 3 3 3 4 5 6 7 9 10 11 13 14 15 16 17 18 18 19 19 20 20 21 21 21 20 19 18 18 18 19 20 20 21 22 22 23 23 23 23 23 23 23 23 22 22 22 22 22 22 21 21 21 22 24 26 28 29 29 29 29 30 30 31 32 33 32 30 29 28 29 29 30 32 33 33 34
6 6 5 4 3 3 3 3 2 2 2 3 5 6 8 9 11 12 14 15 16 18 19 19 20 20 20 20 20 21 21 20 19 18 17 17 17 18 19 20 21 21 22 23 23 24 24 24 24 25 24 24 24 23 23 23 22 22 22 21 21 21 21 22 23 25 27 28 29 29 29 29 30 32 33 32 32 31 30 28 28 30 33 34 34
5 4 3 3 2 2 2 2 2 3 4 5 7 9 10 12 13 15 16 17 18 19 19 20 20 20 20 19 20 20 19 18 16 15 15 16 17 18 19 20 21 22 23 24 24 24 25 25 25 25 26 25 25 25 25 24 24 23 23 23 22 21 21 21 21 22 23 24 26 28 29 29 29 30 32 33 34 33 32 31 30 30 32 32 32
3 2 2 1 1 1 2 3 4 5 6 8 10 11 13 14 16 17 18 19 19 19 19 19 19 19 19 19 19 18 16 15 14 14 15 16 17 18 19 21 22 23 24 24 25 25 25 25 26 26 26 26 26 26 26 26 25 24 24 24 24 23 22 22 22 21 21 22 22 23 25 27 29 29 31 32 35 35 33 33 32 32 33 34 34
1 1 0 0 1 3 4 5 6 8 9 11 13 14 15 17 18 19 20 20 20 19 19 19 18 18 18 18 17 15 14 13 14 14 15 16 18 19 20 21 23 23 24 24 25 25 26 26 27 27 27 27 27 27 27 27 26 26 25 25 24 25 24 24 24 23 22 22 22 22 23 23 25 26 27 29 33 35 35 34 33 33 33 35 37
1 1 1 2 3 5 6 8 9 10 12 13 14 16 17 19 19 20 20 20 20 19 19 19 18 18 17 16 14 13 13 14 15 15 16 17 19 20 21 22 23 24 24 25 26 26 27 27 28 28 28 28 28 28 28 28 28 27 27 26 26 25 25 24 25 25 24 24 24 23 23 23 23 24 24 25 27 30 33 33 33 34 33 34 37
2 3 3 3 5 6 8 10 11 12 14 15 16 18 19 20 20 20 20 20 20 19 19 18 18 17 15 14 13 13 13 14 15 16 18 18 20 21 22 23 23 24 25 25 26 27 28 28 28 29 29 29 29 29 30 29 29 29 28 28 27 27 26 25 25 26 26 26 25 25 25 24 24 24 24 24 25 26 28 28 29 31 32 33 37
4 4 4 5 6 8 10 11 13 14 15 17 18 19 20 20 20 21 20 20 19 19 19 18 17 16 14 13 12 13 14 15 16 17 18 20 21 22 22 23 23 24 25 25 26 27 27 28 28 29 29 30 30 30 30 30 30 30 30 30 29 28 27 26 25 25 26 27 27 27 27 26 25 25 25 25 25 26 27 27 27 28 28 28 32
5 5 5 6 7 9 11 12 13 15 16 18 19 20 20 20 20 20 19 19 19 19 19 18 16 15 13 13 13 13 14 15 17 18 20 21 21 22 22 22 23 23 24 25 25 26 26 27 28 29 29 30 30 31 31 31 31 31 31 31 31 30 30 29 28 26 25 26 27 28 28 28 28 28 28 28 27 27 28 29 29 29 28 27 27
5 6 6 7 9 10 12 13 14 16 17 18 19 19 20 20 19 19 18 19 18 18 18 16 15 13 13 13 13 14 15 16 18 19 20 20 20 21 21 21 22 22 23 24 25 26 26 27 27 28 29 30 30 31 31 32 32 32 33 33 33 33 32 32 31 30 28 26 27 28 29 29 30 30 30 30 30 30 30 30 30 31 31 30 29
6 6 8 9 10 11 13 14 16 17 18 19 19 19 19 19 18 18 18 18 18 17 16 14 13 13 13 13 15 16 17 18 19 19 19 20 20 20 21 21 22 22 23 24 25 26 27 27 28 29 29 30 31 32 32 32 33 33 34 34 34 35 35 35 35 34 33 31 30 29 29 29 30 30 32 32 32 32 32 32 32 32 32 33 32
7 7 9 10 11 12 14 16 17 18 19 19 19 19 19 19 19 19 18 17 16 15 14 13 13 13 14 15 16 17 18 19 19 19 19 19 20 21 21 22 23 24 25 26 27 28 28 29 30 30 31 32 32 33 34 34 35 35 35 35 36 36 36 37 37 36 36 35 34 33 32 31 30 30 31 33 33 34 34 34 34 34 35 35 34
8 9 10 11 12 14 15 17 17 18 19 19 18 18 19 19 19 19 17 16 15 14 13 13 13 14 15 16 17 18 19 19 20 20 20 20 21 22 23 24 25 26 27 28 29 30 30 31 31 32 33 33 34 35 35 36 36 37 37 37 37 38 38 38 38 38 38 37 37 36 35 35 33 32 32 33 34 35 35 36 36 36 36 37 36
Wind_Direction
271 273 274 275 273 271 275 279 283 286 286 284 278 274 269 267 267 273 282 290 287 275 267 261 259 259 260 259 258 258 259 261 264 268 271 275 277 278 278 277 277 276 275 275 274 273 271 269 268 267 267 267 266 265 264 263 261 260 259 258 258 259 260 261 260 261 262 263 264 264 264 265 266 266 268 269 271 271 270 270 270 270 271 271 270
267 270 271 271 273 279 286 289 289 288 287 285 279 274 269 268 269 274 280 288 289 278 267 260 257 259 262 262 262 262 263 265 268 271 276 279 280 281 280 280 280 280 280 280 279 277 276 275 274 273 272 271 270 269 267 266 265 263 261 259 258 258 259 260 260 259 259 261 263 264 265 265 266 266 267 268 269 269 269 268 267 267 268 269 269
266 268 269 274 281 289 296 298 298 294 289 282 275 270 268 268 271 275 277 281 282 275 265 259 257 259 262 263 265 266 268 270 271 274 277 280 281 281 281 281 281 281 281 281 282 282 282 281 280 278 275 274 272 270 268 266 265 265 263 261 259 258 257 257 257 257 256 257 258 260 261 261 262 263 264 265 267 267 267 267 266 266 266 266 267
268 271 274 281 288 293 299 299 297 294 286 274 268 265 265 268 271 274 274 272 271 267 262 260 261 264 266 267 269 270 271 271 273 274 276 278 278 278 278 278 277 277 278 278 279 281 282 282 282 280 277 275 273 270 267 265 264 264 263 262 261 260 258 257 256 257 257 257 257 258 259 260 262 264 265 265 265 267 267 267 267 266 266 266 266
269 274 278 284 291 298 301 298 294 289 279 270 266 265 265 269 273 274 269 263 262 264 264 264 265 268 270 271 271 270 270 271 273 275 277 278 278 278 276 276 275 274 273 273 273 273 273 274 276 276 276 274 271 268 265 264 263 262 262 262 262 261 260 259 258 258 258 259 258 258 260 262 263 264 266 266 265 266 267 267 267 267 267 267 267
270 276 285 292 300 304 304 298 291 282 273 266 264 264 268 273 275 272 263 256 258 264 265 265 265 267 269 270 270 270 270 272 274 277 279 279 278 277 276 275 274 273 272 270 269 268 267 267 267 269 270 270 269 267 266 265 263 262 261 261 261 261 260 260 260 260 260 260 259 259 259 261 263 263 264 265 265 264 265 266 266 267 267 268 268
273 281 290 300 307 308 306 298 287 274 266 261 258 257 262 268 270 265 255 251 255 260 263 263 262 262 263 265 265 268 271 273 276 279 280 278 276 275 274 274 273 272 271 271 271 271 270 268 266 266 267 268 267 266 266 265 264 263 262 261 260 260 260 260 260 261 261 261 261 261 260 260 263 265 264 264 264 264 265 266 267 268 268 269 269
276 286 294 303 306 306 305 295 280 268 263 262 259 260 261 260 259 254 248 248 253 257 260 260 259 257 258 261 265 270 274 277 279 279 279 277 275 274 274 274 274 274 273 273 273 272 270 269 269 267 266 267 267 266 265 265 265 264 263 263 262 261 260 261 261 261 262 263 263 263 262 260 261 263 264 263 263 264 265 266 267 268 268 269 269
289 297 301 304 302 301 298 286 273 265 263 263 263 265 267 263 254 249 248 250 254 257 259 259 258 257 257 262 269 275 277 279 279 279 279 277 275 274 274 274 274 275 275 275 273 272 271 269 270 269 266 265 265 265 265 266 266 265 265 265 265 264 262 262 262 263 264 264 265 265 264 263 261 261 264 264 264 264 264 265 266 267 267 267 268
300 302 304 305 302 297 290 280 271 266 265 267 267 270 274 272 262 255 253 253 254 256 258 258 257 259 263 269 274 277 279 280 281 281 281 279 277 276 275 272 272 274 275 275 273 273 273 271 271 272 268 266 265 265 266 266 267 267 267 267 267 266 265 265 264 265 265 265 266 266 266 265 263 261 264 267 267 266 265 265 265 266 265 266 266
293 299 302 300 295 289 282 276 271 269 272 275 272 274 280 279 277 271 264 259 257 257 258 259 261 265 269 274 277 279 280 281 282 282 281 280 278 276 274 272 272 274 275 275 276 277 277 275 273 274 273 270 268 267 267 267 267 267 269 270 270 269 269 269 268 267 267 267 267 267 267 268 267 265 266 268 269 268 267 266 266 266 266 265 265
287 291 293 287 281 277 275 271 271 276 278 279 274 272 283 288 287 282 274 268 265 264 263 263 265 268 271 274 276 277 279 280 280 281 280 279 277 276 275 275 275 275 275 276 277 279 279 277 273 272 274 273 272 270 269 269 269 269 269 269 270 271 271 271 271 271 270 271 271 271 271 271 272 271 270 269 270 270 269 267 266 266 266 266 266
287 286 281 278 274 273 279 280 280 283 283 283 277 273 282 289 287 284 278 274 275 274 269 264 264 267 269 270 271 274 276 277 277 277 277 275 275 276 278 278 278 277 277 277 278 280 281 279 275 274 275 275 272 272 272 272 272 272 271 270 270 270 270 271 271 271 271 272 272 272 273 274 275 275 273 272 271 270 269 268 267 266 266 266 266
285 279 276 276 275 279 284 287 287 286 285 283 278 275 278 282 284 281 278 280 286 282 273 265 262 264 266 268 272 275 276 276 275 275 274 274 276 277 280 281 280 280 281 282 282 283 285 285 282 280 280 278 275 276 277 276 275 275 274 272 271 271 271 272 271 271 270 271 271 272 275 276 276 275 273 272 271 270 269 268 267 267 266 266 266
280 272 272 273 275 283 287 288 289 288 287 284 281 278 275 276 277 276 279 288 293 286 278 271 267 268 270 275 280 282 281 280 280 280 280 279 281 283 286 286 285 285 286 287 288 288 290 291 290 289 288 286 284 284 282 278 276 275 275 273 271 271 272 274 273 272 271 271 271 274 277 277 276 276 273 270 270 269 267 267 266 266 266 267 267
274 270 270 276 283 286 290 290 288 291 292 290 287 279 273 273 276 277 283 290 292 291 291 286 281 281 283 288 289 290 291 291 291 290 291 291 292 294 294 294 293 292 293 293 293 293 294 296 297 297 296 295 293 292 287 281 278 276 275 273 272 272 273 273 273 273 273 272 273 276 279 279 277 277 275 269 267 266 265 265 264 265 266 267 268
268 268 273 279 286 287 289 293 293 292 288 287 287 280 273 275 277 276 275 279 285 290 293 292 290 291 293 295 295 295 296 297 298 298 299 300 302 305 306 305 303 301 299 297 295 295 296 299 301 301 300 297 294 290 286 283 280 278 276 275 274 274 274 274 273 273 273 274 276 278 278 280 280 276 274 270 265 264 264 263 264 265 266 268 268
276 271 283 282 288 293 287 290 293 287 280 277 275 272 274 274 268 262 261 268 276 282 287 292 294 295 297 298 298 299 302 304 304 306 307 307 312 316 317 316 315 311 306 303 300 300 301 301 302 302 301 299 296 290 285 282 281 279 278 277 276 277 278 277 276 275 275 277 280 280 279 280 281 274 270 268 264 263 263 262 263 264 266 268 269
300 296 297 295 292 289 280 278 277 272 271 265 256 259 262 258 252 252 255 262 272 281 289 295 299 302 304 304 305 307 312 314 313 317 317 316 320 323 326 325 324 321 319 316 313 312 311 309 308 305 304 301 297 293 288 283 281 281 281 280 280 280 280 279 279 279 280 283 283 282 279 280 281 274 266 264 264 263 264 264 264 264 265 267 268
287 293 287 284 277 273 271 265 262 264 265 255 250 252 248 246 249 250 254 266 280 290 297 301 304 306 309 314 319 325 324 319 321 326 324 321 321 324 329 329 329 329 328 326 324 323 323 323 319 315 311 305 301 298 293 289 287 287 286 284 282 281 280 280 282 284 288 289 285 281 278 279 281 277 271 266 265 266 267 267 266 265 265 265 266
285 284 279 274 270 274 276 258 244 272 270 256 253 250 242 247 255 258 265 286 295 297 303 304 308 310 315 329 331 329 327 323 328 330 327 323 320 322 322 321 322 323 323 324 326 326 325 325 325 324 321 316 310 305 302 301 298 295 291 287 286 285 284 285 286 289 291 289 286 282 278 277 276 281 285 277 270 270 269 268 268 267 266 266 266
297 289 286 278 277 291 300 295 14 36 298 259 267 284 290 282 318 309 308 329 323 316 313 310 311 310 317 337 331 327 335 337 339 336 329 324 321 319 313 310 310 311 312 314 319 320 319 320 323 321 319 321 318 315 314 309 305 302 298 295 291 292 292 289 291 292 288 289 289 285 278 277 276 280 287 284 277 274 271 270 269 269 268 267 268
292 64 40 46 15 345 351 317 2 52 69 43 0 6 0 5 20 3 5 15 356 344 335 334 329 323 332 342 332 337 348 345 343 333 327 326 322 317 312 311 313 314 314 315 319 319 315 316 319 315 312 315 315 316 314 308 307 306 302 296 288 290 294 293 295 292 287 287 285 282 279 277 278 279 282 282 279 276 273 271 270 269 269 268 269
278 322 2 20 48 41 45 51 29 21 17 7 7 28 27 25 23 16 22 19 12 7 355 351 341 336 339 334 330 343 349 341 337 325 321 322 316 316 314 314 317 316 316 318 321 319 314 313 314 310 307 308 306 306 306 303 304 304 301 295 288 288 292 290 287 283 285 283 275 277 281 278 277 277 278 278 277 275 274 273 271 270 269 269 269
283 287 291 293 308 321 331 357 3 354 357 3 11 27 30 30 26 21 16 9 7 0 348 345 337 333 332 328 333 342 344 341 338 328 323 321 317 321 318 317 320 317 317 318 318 317 315 314 311 307 305 303 301 300 299 296 295 297 296 293 291 290 291 287 281 281 286 284 279 281 285 283 278 275 274 275 274 274 274 273 272 271 270 269 268
288 284 282 289 300 308 322 347 358 354 1 16 21 26 28 26 22 18 12 8 5 353 343 341 334 332 330 331 338 339 340 339 337 332 329 328 327 328 326 323 325 323 321 319 316 315 315 313 308 306 304 303 302 300 296 292 292 292 292 292 292 291 292 290 287 287 285 284 284 286 288 285 280 277 275 274 273 273 273 273 273 273 272 270 268
285 284 290 301 308 327 353 8 16 5 5 30 37 30 27 25 18 9 3 4 1 354 351 345 334 333 331 330 336 339 342 344 344 342 340 342 341 341 343 341 339 338 334 330 327 322 321 318 311 307 304 302 301 300 297 294 292 291 290 292 293 292 292 289 285 282 281 282 282 282 283 279 276 280 281 279 276 274 273 273 273 274 273 272 270
279 285 300 314 334 2 17 24 30 25 25 41 44 36 28 23 16 6 0 2 0 357 359 353 345 344 344 343 348 355 360 1 3 4 2 1 0 357 358 355 351 350 347 346 343 337 333 331 326 320 314 309 303 298 296 292 290 289 288 288 288 290 290 287 283 278 277 280 280 279 279 278 280 282 284 284 280 278 276 274 275 275 274 272 270
284 304 313 331 8 17 19 23 33 43 40 40 41 34 26 20 19 14 7 10 10 11 14 17 21 22 22 19 17 16 16 14 10 8 4 1 1 359 356 352 349 347 344 343 341 338 336 334 332 329 325 322 316 310 305 300 298 295 294 292 290 290 289 287 283 279 278 279 281 280 279 280 280 278 280 284 281 279 278 277 278 278 275 272 270
7 0 336 350 12 15 7 9 23 29 24 24 25 20 19 18 18 18 18 25 29 33 35 35 35 32 29 24 18 12 10 9 5 3 0 358 358 355 351 347 345 343 341 339 336 334 332 330 328 326 325 323 321 318 315 311 308 303 300 297 294 292 289 287 284 281 279 280 282 280 279 280 278 277 280 282 281 279 279 278 279 280 278 275 273
33 358 346 355 2 359 350 352 2 7 9 12 14 15 17 18 22 28 31 36 38 36 33 28 23 19 16 14 13 8 6 5 2 1 358 355 355 352 348 344 341 340 338 337 334 331 329 328 327 324 322 319 317 315 314 312 310 308 305 302 299 295 292 289 287 283 281 281 282 281 281 281 280 281 281 280 279 279 279 278 278 278 277 274 272
37 5 358 351 347 346 345 349 355 2 6 8 11 15 21 29 37 39 35 31 27 22 17 15 13 11 10 9 10 7 4 1 356 355 350 348 347 344 342 339 337 336 334 333 330 328 327 326 325 322 319 317 315 313 312 310 308 307 305 303 302 300 297 294 291 288 284 282 281 280 279 278 278 279 279 279 278 278 278 278 277 276 275 273 272
10 5 356 348 346 347 350 354 358 4 9 13 17 26 37 43 42 35 28 20 14 12 9 10 9 7 7 5 3 360 357 354 348 345 342 341 340 339 339 337 336 334 332 330 328 326 324 323 321 319 317 315 313 312 310 308 307 305 303 301 299 298 298 297 295 293 290 287 283 281 280 279 278 277 278 279 278 278 277 277 276 274 274 275 276
359 1 353 357 359 359 9 18 21 28 35 40 43 46 46 39 32 27 20 14 11 8 5 5 3 0 359 356 353 350 347 344 341 339 338 338 337 337 337 336 336 334 332 331 328 327 325 323 321 318 316 314 312 310 308 307 305 303 301 299 297 296 295 295 295 294 293 292 289 287 285 283 282 280 279 279 280 279 277 275 274 273 274 273 272
353 10 15 25 30 34 44 52 60 65 66 63 57 48 36 28 25 21 16 12 6 1 357 355 352 349 348 344 342 339 337 337 336 336 336 336 336 336 336 337 337 337 336 335 334 333 332 329 326 323 320 317 314 311 308 307 305 304 302 300 298 296 294 293 293 292 291 291 291 290 289 287 285 284 283 281 280 279 277 275 271 271 272 270 267
20 40 46 53 59 64 71 78 81 82 78 69 55 38 29 24 21 15 9 3 355 350 347 343 341 338 336 334 333 332 332 332 332 333 334 335 336 337 338 340 342 344 345 345 345 344 343 341 338 336 332 328 324 319 314 310 307 304 302 301 300 298 296 293 292 292 291 291 289 288 288 287 286 286 286 284 280 277 275 273 271 270 270 269 267
58 67 72 76 80 84 89 92 91 89 81 64 45 30 20 13 8 1 355 347 342 339 336 333 331 329 328 328 328 328 328 329 331 333 334 335 337 340 344 347 349 351 352 352 352 352 351 350 349 348 345 342 339 334 330 324 317 311 305 302 299 298 297 295 293 292 292 291 290 289 287 287 286 284 284 284 281 277 274 272 272 272 270 269 269
83 88 91 91 93 93 91 90 85 76 61 44 27 14 1 354 348 344 340 335 333 331 329 328 326 325 325 325 325 325 327 329 332 333 335 338 342 346 349 351 351 352 353 353 353 353 353 352 352 351 350 349 348 346 344 341 336 329 322 313 306 301 298 296 294 293 292 292 291 290 288 288 287 285 283 283 282 279 278 276 274 272 270 268 268
99 100 100 99 98 96 90 86 77 64 47 24 4 350 341 337 334 332 330 329 328 326 325 324 323 323 323 323 325 326 328 331 332 334 338 341 345 347 348 349 350 350 350 350 351 351 351 350 350 349 349 348 348 349 348 347 346 344 340 335 327 318 309 302 297 294 293 293 293 292 290 289 288 287 284 283 283 281 280 280 279 276 273 270 267
109 104 102 101 101 101 94 84 68 44 16 350 338 334 329 327 326 326 326 326 325 324 323 322 321 322 323 324 326 328 330 331 333 336 339 342 344 346 347 347 348 348 347 347 347 347 347 347 347 346 346 345 345 345 345 345 345 346 345 344 342 338 331 323 313 304 298 295 294 293 293 291 289 288 285 282 282 281 279 279 279 278 277 275 271
106 99 101 104 105 99 73 42 10 349 337 330 328 326 325 324 325 326 326 325 323 322 322 321 322 323 325 327 328 328 329 330 334 337 339 341 343 344 345 345 345 344 343 343 343 343 343 343 343 342 342 342 341 341 341 341 341 342 342 343 343 343 342 339 333 326 317 308 301 296 293 292 290 289 288 285 281 280 279 278 276 277 279 280 278
106 107 111 112 90 27 352 344 336 330 326 325 324 323 324 325 326 326 325 324 323 322 323 324 325 326 327 328 327 327 328 331 335 337 339 340 341 342 342 341 340 339 339 338 338 338 337 337 337 338 338 337 337 337 337 336 336 337 337 337 338 339 341 340 338 338 334 328 320 310 302 297 293 290 289 288 285 282 280 279 278 277 277 278 279
146 166 169 353 353 342 334 330 325 323 323 323 324 324 325 326 325 325 323 323 323 324 326 327 328 327 327 327 326 327 329 333 335 337 338 339 339 338 337 336 335 334 333 333 333 332 332 332 332 332 332 332 332 332 332 331 331 331 331 331 331 332 334 334 334 335 335 334 331 327 321 315 308 302 296 292 289 286 283 281 280 278 277 279 279
262 276 302 333 337 329 324 322 320 320 322 324 324 325 325 325 324 322 322 322 324 326 327 328 327 326 326 327 327 327 329 330 332 334 335 335 334 333 332 331 330 330 329 328 328 328 328 328 328 328 327 327 327 327 326 326 326 326 325 325 325 325 326 327 327 328 329 329 328 328 327 325 323 319 313 307 301 296 291 287 284 280 277 277 277
288 295 312 327 325 322 320 319 319 320 322 323 325 325 324 323 321 321 322 324 326 327 327 326 325 325 325 325 324 324 324 326 328 329 329 329 328 328 328 328 328 327 326 326 326 326 326 325 324 323 323 323 322 322 322 321 321 321 320 320 319 319 319 320 319 319 320 320 321 321 321 322 322 321 320 318 315 310 306 302 296 289 282 277 274
299 305 314 320 320 320 319 318 320 321 323 324 325 324 322 320 320 321 323 325 326 326 325 325 324 323 323 320 318 318 318 320 321 322 323 324 324 325 325 326 326 326 325 325 325 324 324 322 321 320 319 319 318 318 318 317 317 316 316 315 314 314 313 313 313 312 313 313 313 313 313 313 313 313 314 314 314 314 313 313 310 306 300 290 281
297 302 308 314 318 318 318 319 320 321 323 323 322 320 319 318 320 322 324 326 326 324 323 322 320 318 316 312 311 311 312 314 315 318 320 321 323 323 323 324 324 324 324 323 323 322 322 320 319 318 317 317 316 315 315 314 313 312 312 311 310 310 309 308 308 307 307 307 308 308 308 308 307 306 307 307 308 308 309 310 311 311 311 308 299
288 299 307 312 316 316 316 317 319 321 321 320 318 316 315 317 319 322 324 324 322 321 319 316 312 309 306 304 305 307 309 311 313 315 318 319 320 320 320 320 320 321 320 320 320 319 319 318 317 316 315 315 314 313 313 312 311 310 310 309 308 307 307 306 305 305 304 303 303 304 304 304 303 303 302 302 302 302 302 303 304 306 307 308 308
294 306 312 312 314 316 318 319 319 320 318 315 314 313 314 317 320 322 322 320 319 317 314 310 305 302 301 301 302 305 307 310 312 314 315 315 315 316 316 316 316 316 316 316 316 316 315 315 314 314 313 313 312 312 311 311 310 309 309 308 307 306 306 305 304 303 303 301 300 299 299 299 299 299 299 299 299 298 297 297 297 298 299 300 302
304 312 313 311 315 318 319 319 319 317 313 311 312 313 315 318 320 321 320 318 316 313 309 304 301 299 299 300 301 303 305 308 310 310 310 310 311 311 311 311 312 312 313 313 313 313 313 313 313 312 312 312 311 311 311 310 309 308 308 307 306 305 304 304 302 302 301 300 299 297 296 295 295 295 296 296 296 295 295 294 294 294 294 295 296
310 312 311 311 315 317 317 317 315 312 309 310 312 314 317 319 320 320 317 316 313 309 305 301 299 299 298 299 299 301 303 305 305 304 304 305 306 307 308 309 310 310 311 311 311 311 311 311 311 311 311 311 310 310 309 309 308 307 306 306 304 303 302 301 300 299 298 297 296 295 294 294 293 293 293 293 293 293 293 292 292 292 292 292 293
Height
5837 5836 5837 5838 5839 5840 5841 5841 5841 5841 5840 5840 5839 5839 5838 5837 5836 5835 5834 5833 5833 5833 5833 5834 5834 5834 5834 5834 5834 5834 5834 5834 5834 5834 5834 5834 5833 5833 5832 5832 5831 5830 5829 5829 5829 5829 5829 5828 5828 5828 5828 5828 5828 5828 5828 5829 5829 5830 5830 5831 5831 5831 5831 5831 5830 5830 5829 5829 5829 5830 5831 5831 5831 5831 5831 5831 5832 5832 5832 5833 5833 5833 5833 5833 5833
5833 5833 5834 5836 5837 5838 5838 5838 5838 5838 5838 5838 5837 5837 5836 5835 5834 5833 5832 5831 5831 5831 5831 5832 5832 5832 5833 5833 5833 5833 5833 5833 5833 5833 5833 5833 5832 5832 5831 5831 5830 5830 5829 5829 5828 5828 5828 5828 5828 5828 5827 5827 5826 5826 5826 5826 5827 5827 5828 5829 5829 5829 5829 5829 5829 5828 5828 5828 5828 5828 5829 5829 5829 5830 5830 5830 5830 5830 5830 5831 5831 5831 5831 5831 5831
5828 5830 5833 5835 5836 5836 5836 5836 5836 5836 5836 5835 5835 5834 5833 5833 5832 5831 5830 5829 5829 5829 5830 5830 5831 5831 5832 5832 5832 5833 5833 5833 5832 5832 5832 5832 5831 5831 5831 5830 5829 5829 5829 5828 5828 5828 5828 5828 5828 5828 5827 5826 5826 5825 5825 5825 5825 5826 5826 5827 5827 5827 5827 5827 5827 5827 5826 5826 5826 5826 5827 5827 5827 5827 5828 5828 5828 5828 5828 5829 5829 5829 5829 5829 5829
5827 5830 5833 5833 5834 5834 5834 5834 5834 5833 5833 5832 5832 5832 5831 5830 5830 5829 5828 5828 5828 5828 5829 5829 5830 5830 5831 5831 5831 5831 5832 5831 5831 5831 5831 5830 5830 5830 5829 5829 5828 5828 5828 5827 5827 5827 5827 5827 5827 5827 5826 5826 5825 5825 5824 5824 5824 5824 5825 5825 5824 5824 5825 5825 5825 5825 5825 5825 5825 5825 5825 5825 5826 5826 5826 5826 5826 5826 5826 5827 5827 5827 5827 5827 5827
5829 5830 5831 5831 5831 5832 5832 5832 5832 5831 5831 5830 5830 5829 5829 5828 5827 5827 5826 5827 5827 5828 5828 5829 5829 5829 5829 5829 5829 5830 5830 5830 5830 5829 5829 5829 5828 5828 5828 5827 5826 5826 5826 5826 5825 5825 5824 5824 5824 5825 5825 5824 5824 5824 5824 5823 5823 5823 5823 5823 5823 5823 5823 5823 5823 5823 5823 5823 5823 5824 5824 5824 5824 5824 5824 5824 5824 5824 5824 5824 5825 5825 5825 5825 5825
5828 5828 5828 5829 5829 5830 5830 5830 5830 5829 5829 5828 5828 5827 5827 5826 5825 5824 5824 5825 5826 5826 5827 5827 5827 5827 5828 5828 5828 5828 5828 5828 5828 5828 5827 5827 5826 5826 5825 5825 5824 5824 5824 5824 5823 5823 5822 5822 5821 5821 5822 5822 5823 5823 5823 5822 5822 5822 5822 5822 5821 5821 5821 5821 5821 5821 5822 5822 5822 5822 5823 5822 5822 5823 5823 5822 5822 5822 5823 5823 5823 5823 5823 5823 5823
5826 5826 5826 5826 5827 5828 5827 5827 5827 5827 5827 5826 5825 5825 5824 5824 5823 5822 5822 5823 5824 5825 5825 5825 5825 5826 5826 5826 5826 5826 5826 5826 5826 5826 5826 5825 5825 5824 5823 5823 5822 5822 5822 5822 5822 5822 5822 5821 5820 5820 5820 5820 5821 5821 5821 5821 5821 5821 5821 5820 5820 5820 5820 5820 5820 5820 5820 5820 5820 5821 5821 5821 5821 5821 5821 5820 5821 5821 5821 5821 5821 5821 5821 5822 5822
5824 5825 5825 5825 5826 5826 5826 5826 5826 5826 5825 5825 5824 5823 5823 5821 5821 5821 5821 5821 5822 5822 5823 5823 5823 5824 5824 5825 5825 5825 5824 5824 5824 5823 5823 5823 5823 5822 5822 5821 5820 5820 5820 5820 5821 5821 5821 5820 5820 5819 5818 5818 5818 5819 5819 5819 5819 5820 5820 5819 5818 5818 5818 5818 5818 5818 5818 5818 5819 5819 5820 5820 5821 5820 5819 5818 5819 5819 5819 5819 5819 5819 5820 5820 5820
5824 5824 5824 5824 5825 5825 5825 5824 5824 5824 5824 5824 5823 5822 5821 5820 5819 5819 5819 5819 5820 5821 5821 5821 5822 5822 5823 5823 5823 5823 5823 5822 5822 5822 5822 5822 5822 5821 5821 5820 5819 5818 5818 5818 5818 5818 5818 5818 5818 5818 5817 5817 5817 5817 5817 5817 5817 5818 5818 5818 5817 5817 5817 5817 5817 5817 5817 5817 5817 5818 5818 5819 5819 5819 5817 5817 5817 5817 5817 5817 5817 5818 5818 5818 5818
5823 5823 5824 5824 5824 5824 5824 5823 5823 5823 5823 5823 5822 5822 5821 5819 5818 5818 5818 5818 5819 5819 5820 5820 5820 5821 5821 5821 5820 5820 5821 5821 5821 5821 5821 5821 5820 5820 5819 5819 5818 5818 5817 5817 5816 5816 5816 5816 5816 5816 5816 5815 5815 5815 5815 5815 5816 5816 5817 5816 5816 5815 5815 5815 5815 5815 5815 5815 5815 5816 5816 5817 5817 5818 5816 5815 5815 5816 5816 5816 5816 5816 5816 5817 5817
5822 5822 5823 5823 5823 5823 5823 5823 5822 5822 5822 5822 5822 5821 5820 5819 5818 5818 5818 5818 5818 5818 5819 5819 5819 5819 5819 5819 5819 5819 5819 5819 5820 5820 5820 5820 5819 5819 5818 5817 5817 5816 5816 5815 5815 5815 5814 5814 5814 5814 5814 5814 5813 5813 5814 5814 5814 5814 5815 5815 5814 5814 5814 5814 5813 5813 5813 5813 5813 5813 5813 5814 5815 5815 5814 5813 5814 5814 5814 5814 5814 5815 5815 5815 5815
5821 5821 5822 5822 5822 5822 5821 5821 5821 5821 5821 5821 5821 5820 5820 5819 5819 5818 5818 5818 5818 5818 5818 5818 5818 5818 5818 5817 5817 5818 5818 5818 5819 5819 5819 5818 5818 5817 5816 5816 5815 5815 5814 5814 5813 5813 5813 5812 5812 5812 5812 5812 5811 5811 5811 5812 5812 5813 5813 5813 5812 5812 5812 5812 5812 5812 5812 5811 5811 5811 5811 5811 5812 5812 5812 5811 5812 5812 5812 5813 5813 5813 5813 5813 5813
5819 5819 5820 5820 5820 5820 5820 5820 5819 5820 5820 5819 5820 5819 5819 5819 5819 5818 5818 5817 5817 5817 5817 5817 5816 5816 5816 5816 5816 5817 5817 5817 5817 5817 5817 5816 5816 5815 5815 5814 5813 5813 5812 5812 5812 5811 5811 5811 5810 5810 5810 5810 5809 5809 5809 5810 5810 5811 5811 5811 5810 5810 5810 5810 5810 5810 5810 5809 5809 5809 5809 5809 5809 5809 5809 5809 5810 5810 5810 5811 5811 5811 5811 5812 5812
5817 5817 5818 5818 5818 5818 5818 5818 5818 5818 5818 5818 5818 5818 5818 5818 5818 5817 5817 5816 5816 5815 5816 5815 5815 5815 5815 5815 5816 5816 5816 5816 5815 5815 5815 5814 5814 5813 5813 5812 5812 5811 5811 5810 5810 5810 5810 5809 5809 5809 5808 5808 5808 5807 5807 5807 5808 5808 5809 5809 5809 5808 5809 5809 5808 5808 5808 5808 5807 5807 5806 5806 5806 5806 5806 5807 5807 5808 5808 5808 5809 5809 5809 5810 5810
5817 5816 5817 5817 5817 5817 5817 5817 5817 5817 5818 5817 5817 5817 5817 5817 5816 5816 5816 5815 5815 5815 5814 5814 5814 5814 5814 5814 5814 5814 5814 5814 5814 5813 5813 5813 5812 5812 5811 5811 5810 5810 5809 5809 5809 5809 5809 5808 5808 5807 5807 5807 5806 5806 5805 5805 5805 5806 5806 5806 5806 5806 5806 5806 5806 5806 5806 5805 5805 5805 5804 5804 5804 5804 5804 5804 5805 5805 5806 5806 5806 5807 5807 5807 5808
5815 5815 5816 5816 5816 5817 5817 5816 5816 5816 5816 5816 5816 5816 5816 5816 5815 5815 5814 5814 5814 5814 5813 5813 5812 5812 5812 5812 5812 5812 5813 5812 5812 5812 5812 5811 5811 5810 5810 5809 5809 5808 5808 5808 5808 5808 5807 5807 5806 5806 5806 5805 5805 5804 5803 5803 5803 5803 5803 5804 5804 5803 5803 5804 5804 5803 5803 5803 5803 5803 5802 5802 5802 5802 5802 5802 5802 5803 5803 5804 5804 5804 5805 5805 5806
5814 5814 5815 5815 5815 5816 5816 5815 5815 5815 5815 5815 5815 5815 5815 5815 5814 5814 5814 5814 5813 5813 5812 5812 5811 5811 5811 5811 5811 5811 5811 5811 5811 5811 5811 5810 5810 5809 5809 5808 5807 5807 5807 5807 5807 5806 5806 5805 5805 5804 5804 5804 5803 5803 5802 5801 5801 5801 5801 5801 5801 5801 5801 5801 5801 5800 5800 5800 5801 5802 5801 5801 5801 5801 5800 5800 5800 5801 5801 5801 5802 5802 5803 5803 5804
5814 5814 5814 5815 5815 5815 5814 5814 5814 5814 5814 5814 5814 5814 5813 5813 5813 5813 5813 5813 5813 5812 5811 5811 5810 5810 5810 5809 5810 5810 5810 5810 5810 5810 5810 5809 5809 5808 5808 5807 5807 5807 5806 5806 5805 5804 5804 5803 5803 5803 5802 5802 5801 5801 5800 5800 5800 5800 5800 5799 5799 5799 5799 5798 5798 5798 5798 5798 5799 5800 5799 5799 5799 5799 5798 5798 5798 5799 5799 5799 5800 5800 5801 5801 5802
5813 5813 5813 5813 5813 5813 5813 5813 5813 5812 5812 5812 5812 5812 5812 5812 5812 5812 5812 5812 5811 5811 5810 5810 5810 5809 5808 5809 5809 5809 5809 5809 5809 5809 5809 5808 5808 5808 5807 5807 5807 5806 5806 5805 5804 5803 5803 5802 5801 5801 5801 5800 5800 5799 5799 5798 5798 5798 5798 5798 5797 5797 5797 5796 5796 5796 5796 5797 5797 5797 5796 5796 5796 5796 5796 5796 5797 5797 5797 5797 5798 5798 5799 5799 5800
5813 5813 5812 5811 5811 5811 5811 5811 5811 5810 5810 5811 5811 5811 5811 5811 5811 5811 5811 5810 5810 5810 5810 5809 5809 5809 5808 5808 5808 5808 5808 5808 5808 5808 5808 5808 5807 5807 5807 5806 5806 5806 5805 5804 5803 5802 5801 5801 5800 5800 5800 5799 5799 5798 5798 5797 5797 5796 5796 5796 5795 5795 5795 5794 5794 5794 5794 5794 5794 5794 5793 5794 5794 5795 5795 5795 5795 5795 5795 5796 5796 5796 5797 5797 5798
5814 5813 5812 5810 5808 5809 5810 5811 5811 5811 5811 5811 5811 5810 5811 5811 5811 5811 5811 5810 5810 5809 5809 5809 5809 5809 5808 5808 5808 5808 5808 5808 5808 5808 5808 5807 5807 5806 5806 5806 5805 5805 5804 5803 5802 5801 5800 5800 5799 5799 5799 5799 5798 5797 5796 5796 5795 5795 5795 5794 5794 5794 5793 5793 5793 5793 5792 5792 5791 5791 5791 5791 5793 5794 5794 5794 5793 5793 5794 5794 5794 5794 5795 5795 5796
5811 5811 5811 5810 5809 5809 5809 5809 5809 5810 5811 5812 5811 5810 5810 5811 5811 5811 5811 5810 5810 5810 5810 5809 5809 5809 5808 5807 5807 5807 5807 5807 5808 5808 5807 5807 5807 5806 5806 5805 5804 5804 5803 5802 5801 5800 5799 5799 5799 5799 5798 5798 5797 5796 5795 5795 5794 5794 5793 5793 5793 5793 5792 5792 5792 5791 5790 5790 5789 5789 5789 5790 5790 5791 5792 5792 5791 5791 5791 5791 5792 5792 5793 5793 5794
5809 5809 5810 5810 5808 5808 5808 5807 5807 5807 5807 5809 5809 5808 5809 5809 5809 5810 5810 5809 5810 5810 5810 5809 5809 5808 5807 5807 5806 5806 5806 5806 5806 5806 5806 5806 5806 5806 5805 5804 5804 5803 5802 5802 5801 5800 5799 5799 5799 5798 5798 5797 5796 5795 5795 5794 5794 5793 5793 5792 5792 5792 5792 5791 5791 5789 5788 5789 5788 5787 5788 5788 5788 5789 5789 5789 5788 5788 5789 5789 5789 5790 5791 5791 5792
5808 5809 5810 5809 5807 5807 5806 5806 5806 5806 5806 5807 5807 5806 5807 5807 5808 5809 5809 5809 5810 5810 5809 5809 5808 5808 5807 5806 5806 5805 5806 5806 5806 5805 5805 5806 5806 5805 5805 5804 5803 5802 5802 5801 5800 5799 5799 5798 5798 5798 5797 5796 5795 5795 5794 5793 5793 5793 5792 5792 5792 5791 5790 5789 5789 5788 5787 5788 5787 5785 5786 5786 5786 5786 5786 5786 5785 5786 5786 5786 5787 5788 5789 5789 5790
5808 5809 5809 5807 5807 5808 5807 5805 5806 5806 5806 5807 5806 5805 5806 5806 5808 5809 5809 5810 5810 5809 5809 5808 5808 5808 5807 5806 5805 5805 5805 5805 5805 5805 5805 5805 5804 5804 5803 5803 5802 5801 5801 5800 5799 5798 5798 5797 5797 5797 5796 5795 5794 5794 5793 5793 5792 5792 5791 5791 5791 5790 5789 5788 5788 5786 5785 5786 5785 5784 5784 5784 5783 5783 5782 5782 5782 5783 5783 5784 5785 5785 5786 5787 5788
5808 5808 5808 5806 5806 5806 5806 5806 5807 5807 5807 5807 5806 5806 5806 5807 5808 5809 5809 5809 5809 5809 5809 5808 5808 5807 5806 5805 5804 5804 5804 5804 5804 5804 5803 5803 5802 5802 5802 5801 5801 5800 5799 5799 5798 5797 5797 5796 5796 5796 5795 5794 5793 5793 5792 5792 5791 5790 5790 5789 5789 5788 5787 5787 5787 5785 5784 5784 5784 5783 5782 5782 5780 5779 5779 5780 5780 5780 5780 5781 5782 5783 5784 5785 5785
5808 5807 5807 5806 5806 5806 5806 5807 5807 5808 5808 5808 5808 5807 5808 5808 5808 5809 5809 5809 5808 5808 5808 5808 5807 5807 5806 5805 5804 5803 5802 5803 5803 5802 5802 5802 5801 5800 5800 5799 5799 5799 5798 5797 5796 5795 5795 5795 5795 5794 5793 5793 5792 5791 5790 5790 5790 5789 5788 5787 5786 5786 5785 5785 5784 5784 5783 5782 5782 5782 5781 5780 5779 5777 5778 5778 5778 5777 5778 5779 5780 5781 5781 5782 5782
5807 5807 5807 5807 5807 5807 5807 5808 5808 5808 5809 5809 5808 5808 5809 5809 5809 5809 5809 5808 5808 5807 5807 5807 5806 5806 5805 5804 5803 5803 5802 5802 5802 5801 5801 5801 5800 5799 5798 5798 5797 5797 5797 5796 5795 5794 5793 5793 5792 5792 5791 5791 5790 5789 5788 5788 5788 5788 5787 5786 5785 5784 5783 5782 5782 5781 5781 5780 5780 5780 5778 5778 5778 5777 5777 5776 5776 5776 5776 5777 5778 5778 5778 5778 5779
5807 5808 5808 5808 5808 5808 5808 5808 5808 5809 5809 5808 5808 5808 5808 5809 5809 5809 5808 5807 5807 5806 5806 5806 5805 5805 5804 5804 5804 5803 5803 5803 5802 5802 5801 5800 5799 5798 5798 5796 5796 5796 5795 5795 5794 5794 5793 5792 5791 5790 5789 5789 5788 5787 5786 5785 5785 5785 5784 5783 5783 5782 5781 5780 5779 5779 5779 5778 5778 5778 5777 5777 5777 5776 5775 5775 5774 5774 5774 5775 5776 5776 5775 5775 5776
5808 5808 5809 5809 5809 5808 5808 5808 5809 5809 5808 5807 5806 5806 5807 5807 5807 5807 5807 5806 5806 5806 5806 5806 5805 5805 5805 5804 5804 5803 5802 5802 5802 5802 5801 5801 5800 5799 5798 5796 5795 5795 5794 5793 5793 5792 5792 5791 5790 5789 5788 5787 5786 5785 5785 5784 5783 5782 5781 5780 5780 5779 5779 5778 5777 5777 5777 5777 5776 5775 5775 5775 5774 5774 5773 5773 5773 5773 5773 5773 5774 5774 5773 5773 5773
5809 5809 5809 5809 5808 5808 5808 5808 5808 5807 5806 5806 5805 5805 5806 5806 5806 5806 5806 5807 5807 5807 5807 5806 5805 5805 5804 5804 5803 5803 5802 5802 5801 5801 5801 5800 5800 5799 5797 5796 5795 5794 5793 5792 5791 5791 5790 5789 5788 5787 5787 5786 5785 5784 5783 5782 5782 5781 5780 5779 5778 5777 5777 5775 5775 5774 5774 5775 5774 5773 5772 5772 5771 5771 5771 5771 5772 5772 5772 5772 5773 5772 5771 5770 5770
5810 5810 5809 5808 5808 5808 5808 5807 5807 5806 5806 5806 5806 5806 5806 5806 5806 5807 5807 5807 5807 5807 5807 5806 5805 5804 5804 5804 5803 5802 5802 5801 5801 5800 5800 5799 5799 5798 5797 5796 5794 5793 5792 5791 5790 5789 5788 5787 5786 5785 5785 5784 5784 5783 5782 5781 5780 5780 5779 5778 5777 5776 5775 5774 5772 5771 5771 5772 5772 5771 5770 5770 5769 5768 5768 5769 5770 5770 5770 5770 5771 5771 5769 5768 5768
5809 5809 5808 5808 5808 5807 5807 5807 5807 5806 5806 5807 5807 5807 5807 5807 5807 5807 5807 5807 5807 5806 5806 5806 5805 5804 5804 5803 5803 5802 5801 5801 5800 5799 5799 5798 5797 5796 5795 5794 5793 5792 5790 5789 5788 5787 5786 5785 5784 5783 5782 5782 5781 5780 5780 5779 5778 5777 5777 5776 5776 5774 5773 5771 5770 5769 5768 5769 5769 5768 5768 5767 5766 5766 5765 5766 5767 5768 5768 5768 5768 5768 5767 5767 5767
5809 5809 5809 5808 5808 5808 5807 5807 5807 5807 5808 5808 5808 5808 5808 5808 5808 5808 5807 5807 5807 5806 5806 5805 5805 5804 5804 5803 5802 5802 5801 5800 5799 5799 5797 5796 5795 5794 5793 5792 5791 5789 5788 5787 5786 5785 5783 5782 5781 5780 5780 5779 5778 5777 5777 5776 5775 5775 5774 5774 5773 5772 5771 5769 5768 5767 5766 5765 5765 5765 5764 5763 5763 5762 5762 5763 5764 5765 5765 5765 5765 5765 5765 5765 5764
5810 5809 5809 5809 5808 5808 5808 5808 5808 5808 5809 5809 5809 5809 5809 5808 5808 5808 5808 5807 5807 5807 5806 5805 5805 5804 5804 5803 5802 5802 5801 5800 5799 5798 5796 5795 5794 5792 5791 5790 5788 5787 5786 5785 5784 5782 5781 5780 5779 5778 5777 5776 5775 5774 5774 5773 5772 5772 5771 5771 5770 5769 5768 5767 5765 5764 5763 5762 5761 5761 5761 5761 5760 5759 5759 5760 5761 5761 5761 5761 5761 5761 5762 5762 5762
5810 5809 5809 5809 5809 5809 5809 5809 5810 5810 5810 5810 5810 5810 5810 5809 5809 5808 5808 5808 5807 5807 5806 5806 5805 5804 5804 5803 5802 5801 5800 5799 5798 5797 5795 5794 5792 5791 5790 5788 5787 5786 5785 5783 5782 5781 5779 5778 5777 5776 5775 5774 5773 5772 5771 5770 5769 5769 5768 5767 5767 5766 5765 5764 5763 5761 5760 5759 5758 5757 5756 5756 5758 5758 5757 5757 5757 5756 5756 5756 5757 5758 5759 5759 5759
5810 5810 5810 5810 5810 5810 5811 5811 5811 5811 5811 5811 5810 5810 5810 5809 5809 5809 5808 5808 5807 5807 5806 5806 5805 5804 5804 5803 5802 5801 5800 5798 5797 5796 5794 5793 5792 5790 5789 5788 5787 5785 5784 5783 5781 5780 5779 5778 5776 5775 5774 5772 5771 5770 5769 5768 5767 5766 5765 5764 5764 5763 5762 5761 5760 5759 5757 5756 5755 5754 5752 5752 5753 5755 5756 5755 5754 5752 5751 5752 5753 5754 5755 5755 5756
5810 5811 5811 5811 5811 5811 5811 5811 5811 5811 5811 5811 5810 5810 5810 5810 5809 5809 5808 5808 5807 5806 5806 5805 5804 5803 5803 5802 5801 5800 5799 5797 5796 5795 5793 5792 5791 5790 5789 5787 5786 5785 5784 5783 5781 5780 5779 5777 5776 5775 5773 5772 5771 5769 5768 5766 5765 5764 5763 5762 5761 5760 5759 5758 5757 5756 5755 5753 5752 5751 5749 5749 5748 5749 5752 5752 5750 5749 5748 5748 5749 5749 5750 5751 5752
5811 5812 5812 5812 5812 5812 5812 5812 5812 5811 5811 5811 5811 5811 5810 5810 5810 5809 5808 5807 5807 5806 5805 5804 5803 5802 5801 5800 5799 5798 5797 5796 5795 5794 5792 5791 5790 5789 5788 5787 5786 5785 5784 5782 5781 5780 5779 5777 5776 5774 5773 5772 5770 5769 5767 5766 5765 5763 5762 5760 5759 5758 5756 5755 5754 5752 5752 5750 5749 5748 5746 5746 5745 5744 5747 5747 5746 5746 5745 5745 5745 5745 5745 5747 5748
5812 5812 5812 5813 5813 5813 5812 5812 5812 5812 5812 5811 5811 5811 5811 5810 5810 5809 5808 5807 5806 5805 5804 5803 5802 5801 5800 5799 5798 5797 5796 5795 5794 5792 5791 5790 5789 5788 5787 5786 5785 5784 5783 5782 5781 5779 5778 5777 5775 5774 5773 5771 5770 5769 5767 5766 5764 5762 5761 5759 5758 5756 5755 5753 5751 5750 5749 5748 5746 5745 5743 5743 5742 5740 5741 5742 5741 5741 5742 5743 5743 5741 5741 5742 5744
5812 5813 5813 5813 5813 5813 5813 5812 5812 5812 5812 5811 5811 5811 5810 5810 5809 5808 5807 5806 5805 5804 5803 5802 5801 5800 5798 5797 5796 5795 5794 5794 5793 5792 5790 5789 5788 5787 5787 5785 5784 5783 5782 5781 5780 5779 5777 5776 5775 5773 5772 5770 5769 5767 5766 5765 5763 5761 5760 5758 5757 5755 5754 5752 5750 5748 5746 5745 5743 5742 5741 5739 5739 5738 5737 5737 5736 5737 5738 5739 5740 5739 5738 5738 5738
5812 5813 5813 5813 5813 5813 5813 5812 5812 5812 5812 5811 5811 5810 5810 5809 5808 5807 5806 5805 5804 5803 5802 5800 5799 5798 5797 5796 5795 5794 5793 5793 5792 5791 5790 5789 5788 5787 5786 5785 5783 5782 5781 5780 5779 5778 5776 5775 5774 5772 5771 5769 5768 5766 5765 5763 5762 5760 5759 5757 5755 5754 5752 5751 5748 5747 5745 5743 5741 5739 5738 5736 5735 5735 5734 5732 5731 5732 5734 5735 5735 5736 5735 5734 5734
5812 5812 5813 5813 5813 5813 5812 5812 5812 5812 5811 5811 5810 5810 5809 5808 5807 5806 5804 5803 5802 5801 5800 5799 5798 5797 5796 5795 5794 5793 5792 5791 5790 5790 5789 5788 5787 5786 5785 5784 5783 5782 5781 5779 5778 5777 5776 5774 5773 5771 5769 5768 5766 5765 5763 5762 5760 5758 5757 5755 5754 5752 5751 5749 5747 5745 5743 5741 5740 5738 5736 5734 5733 5732 5731 5729 5727 5726 5728 5730 5731 5732 5732 5730 5729
5812 5812 5812 5812 5812 5812 5812 5812 5812 5811 5811 5810 5809 5808 5807 5806 5805 5804 5803 5802 5801 5800 5798 5797 5796 5795 5794 5794 5793 5792 5791 5790 5789 5789 5788 5787 5786 5785 5784 5783 5782 5781 5780 5778 5777 5776 5774 5773 5771 5770 5768 5766 5764 5763 5761 5760 5758 5756 5755 5753 5752 5750 5749 5747 5745 5743 5742 5740 5738 5736 5734 5732 5731 5729 5728 5726 5725 5722 5723 5725 5726 5727 5729 5728 5726
5812 5812 5812 5812 5812 5812 5812 5811 5811 5810 5810 5809 5808 5807 5806 5805 5804 5803 5802 5801 5800 5798 5797 5796 5795 5794 5793 5793 5792 5791 5791 5790 5789 5788 5787 5787 5786 5785 5784 5783 5782 5780 5779 5777 5776 5774 5773 5771 5770 5768 5766 5764 5763 5761 5759 5757 5756 5754 5753 5751 5749 5748 5746 5745 5743 5741 5739 5738 5736 5734 5732 5730 5729 5727 5725 5724 5722 5720 5719 5719 5720 5721 5723 5724 5723
5812 5812 5812 5812 5811 5811 5811 5811 5810 5809 5809 5808 5807 5806 5805 5804 5803 5802 5801 5799 5798 5797 5796 5795 5794 5793 5793 5792 5792 5791 5790 5789 5789 5788 5787 5786 5785 5784 5783 5782 5780 5779 5778 5776 5775 5773 5772 5770 5768 5766 5764 5763 5761 5759 5757 5755 5754 5752 5750 5749 5747 5745 5744 5743 5741 5739 5737 5735 5734 5732 5730 5728 5726 5725 5723 5721 5720 5718 5716 5715 5715 5715 5717 5718 5719
5812 5812 5812 5811 5811 5811 5810 5810 5809 5809 5808 5807 5806 5805 5804 5803 5802 5801 5800 5798 5797 5796 5795 5794 5794 5793 5793 5792 5791 5791 5790 5789 5788 5787 5786 5785 5784 5783 5782 5780 5779 5778 5776 5775 5773 5771 5770 5768 5766 5764 5762 5761 5759 5757 5755 5753 5751 5749 5748 5746 5744 5743 5741 5740 5739 5737 5735 5733 5731 5729 5727 5726 5724 5722 5720 5719 5717 5716 5714 5713 5712 5711 5711 5712 5713
5812 5812 5811 5811 5810 5810 5810 5809 5809 5808 5807 5806 5805 5804 5803 5802 5801 5800 5799 5798 5796 5795 5795 5794 5793 5793 5792 5792 5791 5790 5790 5789 5788 5786 5785 5784 5783 5782 5780 5779 5777 5776 5774 5773 5771 5769 5768 5766 5764 5762 5760 5758 5756 5754 5753 5751 5749 5747 5745 5743 5741 5739 5738 5736 5735 5734 5733 5731 5729 5727 5725 5723 5721 5719 5717 5716 5714 5713 5711 5710 5708 5708 5707 5707 5707
5811 5811 5810 5810 5810 5810 5809 5809 5808 5807 5806 5805 5805 5803 5802 5801 5800 5799 5798 5797 5796 5795 5794 5794 5793 5792 5792 5791 5790 5789 5788 5788 5787 5785 5784 5783 5782 5780 5779 5777 5776 5774 5772 5771 5769 5767 5765 5764 5762 5760 5758 5756 5754 5752 5750 5748 5746 5744 5742 5740 5738 5736 5734 5732 5731 5729 5728 5727 5726 5724 5722 5720 5718 5716 5714 5712 5711 5709 5708 5706 5705 5704 5703 5703 5703
5810 5810 5810 5809 5809 5809 5808 5808 5807 5806 5805 5805 5804 5802 5801 5800 5799 5798 5797 5796 5795 5794 5794 5793 5793 5792 5791 5790 5789 5789 5787 5786 5785 5784 5783 5781 5780 5778 5777 5775 5774 5772 5770 5769 5767 5765 5763 5761 5759 5757 5755 5753 5751 5749 5747 5745 5743 5741 5739 5737 5735 5733 5731 5729 5727 5725 5723 5722 5721 5720 5719 5717 5716 5714 5711 5709 5707 5705 5704 5702 5701 5700 5699 5698 5698
5810 5809 5809 5809 5809 5808 5807 5807 5806 5805 5804 5803 5802 5801 5800 5799 5797 5796 5795 5795 5794 5794 5793 5793 5792 5791 5790 5789 5788 5787 5786 5785 5784 5782 5781 5779 5778 5776 5775 5773 5772 5770 5768 5766 5765 5763 5761 5759 5756 5754 5752 5750 5748 5745 5743 5741 5739 5737 5735 5733 5731 5729 5727 5725 5723 5721 5719 5718 5716 5715 5714 5712 5712 5710 5708 5706 5704 5702 5700 5698 5697 5695 5694 5693 5692